Location: Brasstown Bald
(34.8693°N, 83.8103°W)
Time: 02:25:37
(UTC-04:00)

Amateur Radio Satellites - All Passes

Search period start: 05 August 2015 01:55
Search period end: 06 August 2015 01:55
Location: Brasstown Bald, 34.8693°N, 83.8103°W

Satellite Date Start Highest point End Downlink Frequencies (MHz)
Time Altitude Azimuth
ISS 05 Aug 01:59:59 02:01:03 11° 25° (NNE) 02:02:12 145.825
BUGSAT 1 05 Aug 02:00:15 02:03:24 21° 289° (WNW) 02:06:30 437.445
POLYITAN 1 05 Aug 02:04:40 02:06:40 13° 292° (WNW) 02:08:27 437.675
YUBILEINY 05 Aug 02:06:07 02:14:13 41° 285° (WNW) 02:22:17 435.215
Oscar 19 05 Aug 02:06:08 02:09:53 21° 93° (E) 02:13:48 437.125/150
O/OREOS (USA 219) 05 Aug 02:06:48 02:11:02 41° 294° (WNW) 02:15:18 437.305
SWISSCUBE 05 Aug 02:14:37 02:19:13 49° 74° (ENE) 02:23:52 437.505
Cosmos 2504 05 Aug 02:15:09 02:20:38 25° 85° (E) 02:26:40 435.465 / 435.565
TISAT 1 05 Aug 02:33:54 02:36:20 15° 268° (W) 02:38:34 437.305
ITUPSAT 1 05 Aug 02:37:30 02:42:19 79° 76° (ENE) 02:47:09 437.325
KKS-1 05 Aug 03:14:13 03:18:00 29° 71° (ENE) 03:21:52 437.445
BEESAT 05 Aug 03:31:49 03:35:52 26° 264° (W) 03:39:51 436.000
JUGNU 05 Aug 03:33:04 03:36:59 18° 176° (S) 03:40:55 437.505
ISS 05 Aug 03:34:43 03:37:59 79° 45° (NE) 03:41:14 145.825
ITAMSAT 1 05 Aug 03:35:49 03:40:38 39° 98° (E) 03:45:29 435.822/435.867
Gurwin Techsat 1B 05 Aug 03:38:34 03:43:43 50° 99° (E) 03:48:52 435.225
Oscar 19 05 Aug 03:44:34 03:49:24 40° 288° (WNW) 03:54:11 437.125/150
SRMSAT 05 Aug 03:46:07 03:48:38 13° 168° (SSE) 03:51:14 437.500
SWISSCUBE 05 Aug 03:54:45 03:57:24 14° 269° (W) 03:59:49 437.505
AO-7 05 Aug 04:02:03 04:06:08 15° 89° (E) 04:10:50 29.400- 29.500
CUSAT 1 05 Aug 04:03:06 04:04:55 16° 96° (E) 04:06:44 437.405
Cosmos 2504 05 Aug 04:05:30 04:12:24 49° 283° (WNW) 04:19:46 435.465 / 435.565
JAS-2 05 Aug 04:07:21 04:14:40 42° 95° (E) 04:21:45 435.910
STARS 05 Aug 04:12:12 04:16:33 81° 77° (ENE) 04:20:56 437.465
RS-15 05 Aug 04:12:53 04:19:52 18° 25° (NNE) 04:27:30 29.354- 29.394
DANDE 05 Aug 04:14:18 04:15:59 14° 97° (E) 04:17:39 436.750
HORYU 2 05 Aug 04:17:48 04:18:48 11° 90° (E) 04:20:06 437.375
MOZHAYETS 4 05 Aug 04:35:58 04:39:48 27° 71° (ENE) 04:43:44
KKS-1 05 Aug 04:51:18 04:54:40 21° 266° (W) 04:57:56 437.445
GONETS M04 05 Aug 04:56:36 05:00:05 14° 81° (E) 05:04:17
ITAMSAT 1 05 Aug 05:16:00 05:19:55 21° 292° (WNW) 05:23:40 435.822/435.867
Gurwin Techsat 1B 05 Aug 05:19:45 05:23:21 18° 293° (WNW) 05:26:44 435.225
JUGNU 05 Aug 05:21:34 05:25:20 17° 186° (S) 05:29:03 437.505
SRMSAT 05 Aug 05:33:12 05:37:07 18° 177° (S) 05:41:01 437.500
HORYU 2 05 Aug 05:51:25 05:55:51 56° 285° (WNW) 06:00:15 437.375
AO-7 05 Aug 05:51:42 06:00:05 89° 288° (WNW) 06:08:23 29.400- 29.500
JAS-2 05 Aug 05:52:27 05:59:34 38° 292° (WNW) 06:06:19 435.910
DANDE 05 Aug 05:58:30 05:59:02 10° 284° (WNW) 05:59:23 436.750
MOZHAYETS 4 05 Aug 06:13:08 06:17:00 25° 266° (W) 06:20:46
RS-15 05 Aug 06:24:27 06:35:57 55° 53° (NE) 06:47:55 29.354- 29.394
CUBESAT XI-V 05 Aug 06:41:35 06:46:05 49° 74° (ENE) 06:50:36 437.345
GONETS M04 05 Aug 06:47:10 06:55:53 87° 96° (E) 07:04:37
JUGNU 05 Aug 07:13:05 07:13:38 10° 195° (SSW) 07:14:03 437.505
CUTE-I 05 Aug 07:15:02 07:19:41 31° 96° (E) 07:24:24 437.470
STRAND 1 05 Aug 07:20:39 07:25:23 39° 72° (ENE) 07:30:10 437.568
Cosmos 2499 05 Aug 07:21:40 07:27:54 31° 86° (E) 07:34:43 435.465 / 435.565
SRMSAT 05 Aug 07:22:00 07:25:36 16° 187° (S) 07:29:09 437.500
BEESAT 2 05 Aug 07:26:48 07:28:06 11° 46° (NE) 07:29:35 435.950
PRISM 05 Aug 07:28:14 07:31:59 33° 73° (ENE) 07:35:46 437.425
AO-7 05 Aug 07:46:39 07:51:56 18° 304° (WNW) 07:56:47 29.400- 29.500
BEESAT 3 05 Aug 07:58:18 08:01:52 30° 54° (NE) 08:05:25 437.485
Cubesat XI-IV 05 Aug 07:59:59 08:05:20 89° 95° (E) 08:10:39 437.490
CUBESAT XI-V 05 Aug 08:21:26 08:23:51 13° 270° (W) 08:25:59 437.345
PCSat 05 Aug 08:31:22 08:36:29 46° 112° (ESE) 08:41:41 145.827
HO-68 05 Aug 08:35:44 08:37:30 11° 87° (E) 08:39:56 435.675
RS-15 05 Aug 08:37:21 08:48:16 42° 251° (WSW) 08:59:10 29.354- 29.394
GOMX 1 05 Aug 08:45:16 08:48:44 20° 94° (E) 08:52:30 467.674
GONETS M04 05 Aug 08:48:46 08:54:05 16° 296° (WNW) 08:58:49
CUTE-I 05 Aug 08:55:12 08:59:41 27° 291° (WNW) 09:04:03 437.470
BRITE-PL 05 Aug 08:56:44 09:01:09 46° 99° (E) 09:05:55 437.365/2234.400
STRAND 1 05 Aug 09:00:54 09:04:45 20° 267° (W) 09:08:27 437.568
SO-50 05 Aug 09:01:04 09:05:46 83° 117° (ESE) 09:10:39 436.795
BEESAT 2 05 Aug 09:02:36 09:06:37 63° 243° (WSW) 09:10:33 435.950
PRISM 05 Aug 09:04:49 09:07:32 16° 267° (W) 09:10:04 437.425
Cosmos 2499 05 Aug 09:13:47 09:20:49 43° 285° (WNW) 09:28:19 435.465 / 435.565
CINEMA 3 05 Aug 09:26:06 09:28:37 14° 91° (E) 09:31:25 145.822/145.860
AIST 2 05 Aug 09:28:17 09:32:20 47° 58° (ENE) 09:36:18 435.215
COMPASS 1 05 Aug 09:32:46 09:35:19 16° 92° (E) 09:38:03 437.405
BEESAT 3 05 Aug 09:36:45 09:39:36 18° 249° (WSW) 09:42:19 437.485
M-CUBED/EXP-1 PRIME 05 Aug 09:41:22 09:44:53 28° 66° (ENE) 09:48:44 437.505
DOVE 4 05 Aug 09:48:21 09:53:06 60° 100° (E) 09:58:07 437.250
SEEDS 05 Aug 09:54:20 09:58:19 39° 98° (E) 10:02:17 437.485
CUTE 1.7 + AOD 2 05 Aug 10:04:30 10:08:48 68° 101° (ESE) 10:13:01 437.475
AUBIESAT-1 05 Aug 10:05:42 10:09:38 46° 69° (ENE) 10:13:55 437.475
AAUSAT CUBESAT 2 05 Aug 10:09:02 10:12:56 37° 97° (E) 10:16:49 437.432
CANX-2 05 Aug 10:13:37 10:17:56 82° 283° (WNW) 10:22:11 2200.000
PCSat 05 Aug 10:15:57 10:20:11 22° 308° (NW) 10:24:17 145.827
HO-68 05 Aug 10:19:08 10:26:22 84° 104° (ESE) 10:33:34 435.675
GOMX 1 05 Aug 10:22:37 10:26:56 36° 286° (WNW) 10:31:27 467.674
FUNcube-1 05 Aug 10:22:52 10:25:15 14° 91° (E) 10:27:53 145.935
YUBILEINY 05 Aug 10:25:43 10:29:56 15° 62° (ENE) 10:34:49 435.215
Oscar 11 05 Aug 10:26:36 10:30:11 25° 95° (E) 10:33:51 145.826/435.025
UWE-3 05 Aug 10:36:20 10:40:21 29° 95° (E) 10:44:28 435.000/436.395/437.385
BRITE-PL 05 Aug 10:36:40 10:39:27 15° 290° (WNW) 10:42:09 437.365/2234.400
UNISAT 6 05 Aug 10:39:48 10:43:19 25° 71° (ENE) 10:47:00 437.425
O/OREOS (USA 219) 05 Aug 10:41:35 10:44:40 18° 59° (ENE) 10:47:54 437.305
SO-50 05 Aug 10:44:48 10:47:02 13° 317° (NW) 10:49:06 436.795
DELFI C3 05 Aug 10:57:43 11:01:29 38° 98° (E) 11:05:15 145.870
Cosmos 2491 05 Aug 11:00:55 11:03:14 12° 80° (E) 11:06:23 435.465 / 435.565
CUBEBUG 2 05 Aug 11:01:10 11:05:53 73° 102° (ESE) 11:10:39 437.445
CINEMA 3 05 Aug 11:01:25 11:06:05 51° 285° (WNW) 11:10:53 145.822/145.860
COMPASS 1 05 Aug 11:07:19 11:11:07 33° 287° (WNW) 11:14:51 437.405
AIST 2 05 Aug 11:08:42 11:10:31 12° 251° (WSW) 11:12:05 435.215
BUGSAT 1 05 Aug 11:13:42 11:14:54 11° 68° (ENE) 11:16:20 437.445
M-CUBED/EXP-1 PRIME 05 Aug 11:16:30 11:19:42 21° 263° (W) 11:23:00 437.505
POLYITAN 1 05 Aug 11:17:17 11:20:35 23° 71° (ENE) 11:23:59 437.675
TIGRISAT 05 Aug 11:20:13 11:24:32 71° 76° (ENE) 11:28:59 435.000
AIST 1 05 Aug 11:22:38 11:24:27 13° 88° (E) 11:26:31
ANTELSAT 05 Aug 11:24:02 11:28:24 82° 78° (ENE) 11:32:54 437.575/2403.000
DOVE 4 05 Aug 11:28:06 11:30:30 13° 292° (WNW) 11:32:40 437.250
SEEDS 05 Aug 11:31:19 11:33:48 15° 291° (WNW) 11:36:05 437.485
POPSAT HIP 1 05 Aug 11:31:53 11:35:38 33° 73° (ENE) 11:39:27 437.405
VELOX 1 05 Aug 11:37:01 11:39:12 14° 92° (E) 11:41:36 145.980
ZACube-1 05 Aug 11:37:45 11:42:20 74° 283° (WNW) 11:46:54 437.345
QB50P2 05 Aug 11:40:32 11:44:32 45° 74° (ENE) 11:48:34 145.880/145.840
AUBIESAT-1 05 Aug 11:42:41 11:44:44 13° 266° (W) 11:46:36 437.475
AAUSAT CUBESAT 2 05 Aug 11:45:47 11:48:15 15° 291° (WNW) 11:50:31 437.432
HUMSAT D 05 Aug 11:45:58 11:50:12 52° 99° (E) 11:54:26 437.325/437.525
50 SAT 05 Aug 11:55:14 11:58:36 27° 96° (E) 12:02:00 437.505
FUNcube-1 05 Aug 11:57:27 12:01:50 45° 286° (WNW) 12:06:11 145.935
DUCHIFAT 1 05 Aug 11:59:26 12:03:35 73° 78° (ENE) 12:07:46 145.980
Oscar 11 05 Aug 12:02:48 12:06:17 23° 289° (WNW) 12:09:38 145.826/435.025
UKube-1 05 Aug 12:03:54 12:08:04 46° 99° (E) 12:12:14 .
NANOSAT C BR1 05 Aug 12:05:38 12:09:49 89° 80° (E) 12:14:02 145.865
QB50P1 05 Aug 12:06:23 12:10:34 87° 256° (WSW) 12:14:48 145.935-145.965
ESTCUBE 1 05 Aug 12:06:24 12:09:49 22° 94° (E) 12:13:21 437.505/2401.250
HO-68 05 Aug 12:08:57 12:13:21 17° 300° (WNW) 12:17:22 435.675
UWE-3 05 Aug 12:13:00 12:16:45 24° 289° (WNW) 12:20:25 435.000/436.395/437.385
UNISAT 6 05 Aug 12:16:26 12:20:02 24° 265° (W) 12:23:38 437.425
YUBILEINY 05 Aug 12:19:27 12:28:20 86° 84° (E) 12:37:11 435.215
O/OREOS (USA 219) 05 Aug 12:20:00 12:24:17 38° 255° (WSW) 12:28:30 437.305
CUBEBUG 1 05 Aug 12:33:34 12:37:34 36° 98° (E) 12:41:36 437.445
AISAT 05 Aug 12:34:03 12:38:29 71° 101° (E) 12:42:54 437.250
DELFI C3 05 Aug 12:34:07 12:36:15 14° 291° (WNW) 12:38:10 145.870
DX 1 05 Aug 12:39:21 12:43:37 57° 286° (WNW) 12:47:52 434.975-435.025
CUBEBUG 2 05 Aug 12:41:12 12:42:03 10° 294° (WNW) 12:42:35 437.445
BUGSAT 1 05 Aug 12:46:08 12:50:01 46° 261° (W) 12:53:54 437.445
Cosmos 2491 05 Aug 12:50:13 12:58:58 79° 94° (E) 13:07:43 435.465 / 435.565
SPROUT 05 Aug 12:52:09 12:54:47 16° 92° (E) 12:57:36 437.525
POLYITAN 1 05 Aug 12:53:01 12:56:25 23° 265° (W) 12:59:45 437.675
AIST 1 05 Aug 12:57:40 13:01:47 40° 281° (W) 13:05:52
POPSAT HIP 1 05 Aug 13:08:59 13:11:39 16° 268° (W) 13:14:08 437.405
VELOX 1 05 Aug 13:11:48 13:16:00 43° 286° (WNW) 13:20:09 145.980
QB50P2 05 Aug 13:19:01 13:20:43 12° 269° (W) 13:22:10 145.880/145.840
Oscar 19 05 Aug 13:20:02 13:23:48 22° 68° (ENE) 13:27:44 437.125/150
HUMSAT D 05 Aug 13:23:46 13:25:31 12° 292° (WNW) 13:27:03 437.325/437.525
50 SAT 05 Aug 13:30:12 13:33:00 18° 290° (WNW) 13:35:39 437.505
UKube-1 05 Aug 13:41:41 13:43:50 13° 293° (WNW) 13:45:46 .
ESTCUBE 1 05 Aug 13:42:51 13:46:42 28° 289° (WNW) 13:50:29 437.505/2401.250
Cosmos 2504 05 Aug 13:54:39 14:02:43 46° 77° (ENE) 14:10:55 435.465 / 435.565
CUBEBUG 1 05 Aug 14:10:52 14:13:40 16° 291° (WNW) 14:16:18 437.445
YUBILEINY 05 Aug 14:19:04 14:24:12 16° 279° (W) 14:28:43 435.215
TISAT 1 05 Aug 14:19:21 14:23:34 74° 285° (WNW) 14:27:48 437.305
SWISSCUBE 05 Aug 14:19:31 14:22:25 17° 92° (E) 14:25:32 437.505
JAS-2 05 Aug 14:20:00 14:21:52 12° 57° (ENE) 14:24:15 435.910
SPROUT 05 Aug 14:27:04 14:31:00 34° 287° (WNW) 14:34:53 437.525
CUSAT 1 05 Aug 14:38:25 14:42:06 21° 77° (ENE) 14:46:43 437.405
ITUPSAT 1 05 Aug 14:42:05 14:46:02 26° 95° (E) 14:50:04 437.325
ITAMSAT 1 05 Aug 14:50:27 14:55:20 43° 72° (ENE) 15:00:17 435.822/435.867
Cosmos 2491 05 Aug 14:50:59 14:56:59 19° 295° (WNW) 15:02:27 435.465 / 435.565
DANDE 05 Aug 14:53:29 14:56:19 16° 77° (ENE) 14:59:53 436.750
Gurwin Techsat 1B 05 Aug 14:56:16 15:01:26 57° 74° (ENE) 15:06:40 435.225
AO-7 05 Aug 14:57:57 15:02:59 19° 57° (ENE) 15:08:25 29.400- 29.500
Oscar 19 05 Aug 14:58:12 15:02:57 38° 263° (W) 15:07:41 437.125/150
BEESAT 05 Aug 15:34:27 15:39:14 79° 283° (WNW) 15:43:58 436.000
Cosmos 2504 05 Aug 15:47:11 15:54:45 35° 273° (W) 16:02:09 435.465 / 435.565
SWISSCUBE 05 Aug 15:56:01 16:00:30 42° 288° (WNW) 16:04:57 437.505
JAS-2 05 Aug 15:59:34 16:05:42 77° 75° (ENE) 16:12:44 435.910
STARS 05 Aug 16:06:04 16:09:12 19° 94° (E) 16:12:29 437.465
VERMONT LUNAR 05 Aug 16:14:22 16:17:14 33° 149° (SSE) 16:20:09 437.305
CUSAT 1 05 Aug 16:19:50 16:24:34 42° 263° (W) 16:30:39 437.405
ITUPSAT 1 05 Aug 16:19:51 16:23:53 27° 290° (WNW) 16:27:48 437.325
ITAMSAT 1 05 Aug 16:31:21 16:35:05 19° 267° (W) 16:38:37 435.822/435.867
DANDE 05 Aug 16:34:59 16:39:20 44° 263° (W) 16:45:02 436.750
Gurwin Techsat 1B 05 Aug 16:38:49 16:41:51 15° 270° (W) 16:44:37 435.225
KKS-1 05 Aug 16:44:16 16:48:45 84° 286° (WNW) 16:53:14 437.445
HORYU 2 05 Aug 16:45:57 16:50:24 87° 77° (ENE) 16:54:54 437.375
AO-7 05 Aug 16:46:28 16:54:51 89° 250° (WSW) 17:03:17 29.400- 29.500
GONETS M04 05 Aug 17:02:01 17:09:50 37° 74° (ENE) 17:17:50
PCSat 05 Aug 17:23:16 17:27:08 20° 51° (NE) 17:31:09 145.827
SO-50 05 Aug 17:36:07 17:40:31 32° 52° (NE) 17:44:52 436.795
STARS 05 Aug 17:41:46 17:45:43 31° 288° (WNW) 17:49:36 437.465
Cubesat XI-IV 05 Aug 17:42:38 17:44:26 12° 64° (ENE) 17:46:32 437.490
JAS-2 05 Aug 17:48:32 17:51:52 14° 275° (W) 17:54:55 435.910
PHONESAT 2.4 05 Aug 17:48:56 17:51:49 25° 146° (SSE) 17:54:46 2401.200-2431.200
VERMONT LUNAR 05 Aug 17:50:50 17:53:53 46° 344° (NNW) 17:56:58 437.305
MOZHAYETS 4 05 Aug 18:10:37 18:15:15 81° 283° (WNW) 18:19:50
CUTE-I 05 Aug 18:33:32 18:38:25 38° 71° (ENE) 18:43:22 437.470
ISS 05 Aug 18:37:23 18:38:36 12° 128° (SE) 18:39:57 145.825
CUBESAT XI-V 05 Aug 18:42:55 18:45:36 16° 91° (E) 18:48:29 437.345
AO-7 05 Aug 18:44:09 18:48:49 15° 271° (W) 18:52:49 29.400- 29.500
GONETS M04 05 Aug 18:58:42 19:06:46 42° 271° (W) 19:14:43
PCSat 05 Aug 19:05:38 19:10:55 52° 248° (WSW) 19:16:08 145.827
Cosmos 2499 05 Aug 19:07:29 19:16:12 59° 79° (E) 19:24:52 435.465 / 435.565
SO-50 05 Aug 19:16:49 19:20:59 27° 248° (WSW) 19:24:55 436.795
Cubesat XI-IV 05 Aug 19:18:35 19:23:57 78° 257° (WSW) 19:29:21 437.490
PHONESAT 2.4 05 Aug 19:26:08 19:29:36 64° 340° (NNW) 19:33:06 2401.200-2431.200
VERMONT LUNAR 05 Aug 19:28:11 19:30:58 27° 0° (N) 19:33:46 437.305
STRAND 1 05 Aug 19:35:37 19:38:47 17° 92° (E) 19:42:11 437.568
GOMX 1 05 Aug 19:52:31 19:54:11 12° 69° (ENE) 19:56:03 467.674
BRITE-PL 05 Aug 20:05:20 20:09:11 33° 74° (ENE) 20:12:57 437.365/2234.400
ISS 05 Aug 20:11:35 20:14:44 49° 320° (NW) 20:17:55 145.825
CUTE-I 05 Aug 20:14:23 20:18:38 23° 266° (W) 20:22:43 437.470
CUBESAT XI-V 05 Aug 20:18:56 20:23:16 40° 287° (WNW) 20:27:32 437.345
SEEDS 05 Aug 20:43:52 20:46:47 19° 70° (ENE) 20:49:50 437.485
HO-68 05 Aug 20:44:01 20:50:39 45° 69° (ENE) 20:57:23 435.675
RS-15 05 Aug 20:44:19 20:54:19 46° 110° (ESE) 21:04:44 29.354- 29.394
PRISM 05 Aug 20:48:31 20:52:38 90° 94° (E) 20:56:42 437.425
DOVE 4 05 Aug 20:51:35 20:55:22 36° 73° (ENE) 20:59:12 437.250
CUTE 1.7 + AOD 2 05 Aug 20:54:11 20:57:55 31° 73° (ENE) 21:01:45 437.475
AAUSAT CUBESAT 2 05 Aug 20:57:23 21:00:06 17° 70° (ENE) 21:02:58 437.432
Cosmos 2499 05 Aug 21:01:42 21:08:53 27° 275° (W) 21:15:42 435.465 / 435.565
CANX-2 05 Aug 21:03:02 21:07:05 44° 75° (ENE) 21:11:13 2200.000
PHONESAT 2.4 05 Aug 21:04:44 21:07:54 31° 357° (N) 21:11:06 2401.200-2431.200
VERMONT LUNAR 05 Aug 21:04:57 21:08:03 49° 17° (NNE) 21:11:08 437.305
STRAND 1 05 Aug 21:13:24 21:18:16 46° 287° (WNW) 21:23:05 437.568
Oscar 11 05 Aug 21:19:29 21:21:39 14° 68° (ENE) 21:24:02 145.826/435.025
GOMX 1 05 Aug 21:28:02 21:32:02 42° 261° (W) 21:35:59 467.674
UWE-3 05 Aug 21:31:43 21:34:02 15° 68° (ENE) 21:36:35 435.000/436.395/437.385
DELFI C3 05 Aug 21:42:39 21:45:03 16° 70° (ENE) 21:47:38 145.870
BRITE-PL 05 Aug 21:45:11 21:47:52 16° 267° (W) 21:50:20 437.365/2234.400
BEESAT 3 05 Aug 21:49:37 21:51:08 12° 110° (ESE) 21:52:53 437.485
COMPASS 1 05 Aug 21:54:20 21:58:32 78° 257° (WSW) 22:02:48 437.405
CUBEBUG 2 05 Aug 21:56:29 22:00:20 37° 73° (ENE) 22:04:21 437.445
CINEMA 3 05 Aug 22:00:01 22:04:10 80° 258° (WSW) 22:08:26 145.822/145.860
SEEDS 05 Aug 22:18:35 22:22:22 30° 264° (W) 22:26:08 437.485
ZACube-1 05 Aug 22:30:20 22:34:27 55° 75° (ENE) 22:38:40 437.345
CUTE 1.7 + AOD 2 05 Aug 22:30:54 22:33:55 18° 267° (W) 22:36:48 437.475
DOVE 4 05 Aug 22:31:08 22:33:22 14° 269° (W) 22:35:24 437.250
AAUSAT CUBESAT 2 05 Aug 22:31:41 22:35:29 32° 264° (W) 22:39:15 437.432
HO-68 05 Aug 22:32:23 22:38:33 30° 265° (W) 22:44:35 435.675
HUMSAT D 05 Aug 22:34:57 22:38:13 23° 71° (ENE) 22:41:37 437.325/437.525
CANX-2 05 Aug 22:41:21 22:43:18 12° 270° (W) 22:45:01 2200.000
VERMONT LUNAR 05 Aug 22:41:49 22:44:39 30° 212° (SSW) 22:47:29 437.305
PHONESAT 2.4 05 Aug 22:42:56 22:46:19 43° 14° (NNE) 22:49:41 2401.200-2431.200
FUNcube-1 05 Aug 22:49:31 22:53:43 87° 264° (W) 22:58:03 145.935
BEESAT 2 05 Aug 22:52:32 22:56:30 53° 116° (ESE) 23:00:32 435.950
Oscar 11 05 Aug 22:53:21 22:57:30 43° 262° (W) 23:01:39 145.826/435.025
UKube-1 05 Aug 22:55:50 22:59:23 26° 71° (ENE) 23:03:00 .
RS-15 05 Aug 22:56:18 23:06:44 47° 310° (NW) 23:17:25 29.354- 29.394
M-CUBED/EXP-1 PRIME 05 Aug 22:59:38 23:04:06 40° 102° (ESE) 23:08:21 437.505
ESTCUBE 1 05 Aug 23:03:56 23:06:20 15° 68° (ENE) 23:08:55 437.505/2401.250
Cosmos 2491 05 Aug 23:05:23 23:12:55 33° 72° (ENE) 23:20:38 435.465 / 435.565
UWE-3 05 Aug 23:06:19 23:10:15 38° 263° (W) 23:14:17 435.000/436.395/437.385
AIST 1 05 Aug 23:08:15 23:12:02 31° 78° (ENE) 23:15:52
TIGRISAT 05 Aug 23:15:57 23:19:22 20° 93° (E) 23:22:56 435.000
DELFI C3 05 Aug 23:16:11 23:19:52 33° 263° (W) 23:23:34 145.870
ANTELSAT 05 Aug 23:19:50 23:23:33 23° 94° (E) 23:27:22 437.575/2403.000
YUBILEINY 05 Aug 23:23:09 23:28:24 19° 83° (E) 23:34:12 435.215
AIST 2 05 Aug 23:23:30 23:26:48 23° 112° (ESE) 23:30:13 435.215
AUBIESAT-1 05 Aug 23:23:42 23:28:21 65° 105° (ESE) 23:32:45 437.475
BEESAT 3 05 Aug 23:24:47 23:28:42 46° 303° (WNW) 23:32:40 437.485
CUBEBUG 1 05 Aug 23:27:07 23:30:18 21° 70° (ENE) 23:33:36 437.445
AISAT 05 Aug 23:28:33 23:32:40 40° 73° (ENE) 23:36:48 437.250
DX 1 05 Aug 23:31:18 23:35:38 78° 76° (ENE) 23:39:58 434.975-435.025
CUBEBUG 2 05 Aug 23:34:52 23:37:16 14° 269° (W) 23:39:30 437.445
DUCHIFAT 1 05 Aug 23:48:43 23:51:06 15° 92° (E) 23:53:41 145.980
NANOSAT C BR1 05 Aug 23:54:42 23:57:38 18° 94° (E) 00:00:41 145.865
QB50P1 05 Aug 23:55:36 23:58:38 19° 94° (E) 00:01:48 145.935-145.965
VELOX 1 06 Aug 00:05:35 00:10:00 75° 258° (WSW) 00:14:24 145.980
50 SAT 06 Aug 00:09:18 00:13:05 50° 260° (W) 00:16:54 437.505
UNISAT 6 06 Aug 00:10:27 00:15:11 88° 96° (E) 00:19:54 437.425
HUMSAT D 06 Aug 00:10:33 00:13:54 23° 266° (W) 00:17:12 437.325/437.525
PHONESAT 2.4 06 Aug 00:20:55 00:24:18 46° 209° (SSW) 00:27:40 2401.200-2431.200
BUGSAT 1 06 Aug 00:31:32 00:35:08 30° 97° (E) 00:38:49 437.445
UKube-1 06 Aug 00:32:04 00:35:29 22° 265° (W) 00:38:48 .
BEESAT 2 06 Aug 00:32:44 00:34:54 14° 313° (NW) 00:36:56 435.950
M-CUBED/EXP-1 PRIME 06 Aug 00:35:07 00:38:32 19° 297° (WNW) 00:41:42 437.505
ESTCUBE 1 06 Aug 00:38:29 00:42:51 45° 261° (W) 00:47:12 437.505/2401.250
POLYITAN 1 06 Aug 00:40:32 00:44:50 71° 101° (E) 00:49:08 437.675
AIST 1 06 Aug 00:46:47 00:49:27 16° 271° (W) 00:51:56
O/OREOS (USA 219) 06 Aug 00:49:45 00:53:47 35° 105° (ESE) 00:57:55 437.305
TIGRISAT 06 Aug 00:51:56 00:56:12 34° 288° (WNW) 01:00:23 435.000
POPSAT HIP 1 06 Aug 00:55:24 00:59:41 78° 283° (WNW) 01:03:58 437.405
ANTELSAT 06 Aug 00:56:12 01:00:19 30° 289° (WNW) 01:04:21 437.575/2403.000
AUBIESAT-1 06 Aug 01:00:26 01:02:29 12° 299° (WNW) 01:04:17 437.475
AIST 2 06 Aug 01:01:33 01:05:16 28° 306° (NW) 01:08:56 435.215
Cosmos 2491 06 Aug 01:01:48 01:10:02 47° 270° (W) 01:18:09 435.465 / 435.565
CUBEBUG 1 06 Aug 01:02:45 01:06:32 28° 264° (W) 01:10:15 437.445
QB50P2 06 Aug 01:04:33 01:08:46 57° 284° (WNW) 01:12:57 145.880/145.840
AISAT 06 Aug 01:06:56 01:09:27 14° 268° (W) 01:11:46 437.250
TISAT 1 06 Aug 01:07:59 01:12:01 50° 75° (ENE) 01:16:05 437.305
YUBILEINY 06 Aug 01:15:42 01:24:24 76° 278° (W) 01:33:12 435.215
RS-15 06 Aug 01:17:07 01:23:16 15° 341° (NNW) 01:29:10 29.354- 29.394
SPROUT 06 Aug 01:17:17 01:21:31 71° 259° (W) 01:25:47 437.525
DUCHIFAT 1 06 Aug 01:23:08 01:27:04 37° 287° (WNW) 01:30:58 145.980
SWISSCUBE 06 Aug 01:23:45 01:26:07 14° 67° (ENE) 01:28:44 437.505
NANOSAT C BR1 06 Aug 01:29:45 01:33:30 30° 288° (WNW) 01:37:13 145.865
QB50P1 06 Aug 01:30:48 01:34:32 29° 288° (WNW) 01:38:11 145.935-145.965
JUGNU 06 Aug 01:31:00 01:33:37 13° 168° (SSE) 01:36:19 437.505
ITUPSAT 1 06 Aug 01:46:04 01:49:40 22° 69° (ENE) 01:53:24 437.325
